Location: Dal�� Lhota
(48.7500°N, 14.0167°E)
Time: 07:37:35
(UTC+00:00)

Transit 2A - Pass Details

Date: 03 August 2021
Orbit: 594 x 964 km, 66.7° (Epoch: 24 September)

Event Time Altitude Azimuth Distance (km) Brightness Sun altitude
Rises 11:03:18 0° 326° (NNW) 3,133 8.9 58.6°
Reaches altitude 10° 11:06:14 10° 344° (NNW) 2,280 8.3 58.6°
Maximum altitude 11:10:00 19° 31° (NNE) 1,798 7.9 58.6°
Drops below altitude 10° 11:14:00 10° 76° (ENE) 2,456 8.7 58.6°
Sets 11:17:18 0° 93° (E) 3,461 9.4 58.6°
